TRA9L LGZA-EHAM

Flight info

Callsign TRA9L
Flight time N/A
Altitude 34000
Route OSDES UY302 GARTA UL611 YNN UL604 DIMIS DCT GACMO DCT TIVNU/N0454F360 DCT ZAG DCT PETOV DCT GOLVA DCT MILGO DCT EPOLA DCT LIMRA DCT LAMSI DCT MAPOX DCT NORKU
Aircraft A21N/M-SDE2E3FGHIRWXY/LB1

Departure

Time 2026-04-29 14:47
Airport Zakynthos International Airport Dionysios Solomos (LGZA)

Arrival

Time N/A
Airport Amsterdam Airport Schiphol (EHAM)
Time Latitude Longitude Altitude Speed Heading
2026-04-29 14:38 37.75408 20.88518 26 ft 0 kts 73°
2026-04-29 14:39 37.75402 20.88496 28 ft 4 kts 72°
2026-04-29 14:39 37.75395 20.88464 28 ft 4 kts 79°
2026-04-29 14:39 37.75395 20.88436 29 ft 4 kts 133°
2026-04-29 14:40 37.75400 20.88431 27 ft 0 kts 163°
2026-04-29 14:42 37.75395 20.88433 29 ft 2 kts 163°
2026-04-29 14:42 37.75377 20.88440 28 ft 4 kts 163°
2026-04-29 14:42 37.75346 20.88452 25 ft 6 kts 163°
2026-04-29 14:43 37.75302 20.88469 26 ft 8 kts 163°
2026-04-29 14:43 37.75244 20.88491 26 ft 10 kts 163°
2026-04-29 14:43 37.75172 20.88518 26 ft 12 kts 164°
2026-04-29 14:43 37.75088 20.88508 25 ft 14 kts 212°
2026-04-29 14:44 37.74996 20.88471 23 ft 15 kts 176°
2026-04-29 14:44 37.74888 20.88503 24 ft 17 kts 161°
2026-04-29 14:44 37.74769 20.88547 26 ft 19 kts 163°
2026-04-29 14:44 37.74641 20.88595 27 ft 20 kts 163°
2026-04-29 14:45 37.74504 20.88645 27 ft 21 kts 164°
2026-04-29 14:45 37.74367 20.88700 26 ft 21 kts 163°
2026-04-29 14:45 37.74225 20.88752 28 ft 19 kts 164°
2026-04-29 14:45 37.74174 20.88784 26 ft 8 kts 222°
2026-04-29 14:46 37.74213 20.88749 28 ft 0 kts 345°
2026-04-29 14:46 37.74230 20.88744 29 ft 19 kts 345°
2026-04-29 14:46 37.74647 20.88598 27 ft 101 kts 342°
2026-04-29 14:46 37.75532 20.88257 38 ft 159 kts 343°
2026-04-29 14:47 37.76576 20.87862 658 ft 154 kts 343°
2026-04-29 14:47 37.77603 20.87464 1226 ft 156 kts 340°
2026-04-29 14:47 37.78723 20.87035 1524 ft 180 kts 342°
2026-04-29 14:47 37.79990 20.86550 1981 ft 199 kts 341°
2026-04-29 14:48 37.81364 20.86009 2536 ft 214 kts 341°
2026-04-29 14:48 37.82830 20.85428 3233 ft 225 kts 341°
2026-04-29 14:48 37.84325 20.84839 4024 ft 225 kts 341°
2026-04-29 14:48 37.85826 20.84253 4816 ft 227 kts 341°
2026-04-29 14:49 37.87437 20.83886 5214 ft 249 kts
2026-04-29 14:49 37.89145 20.84596 5547 ft 270 kts 27°
2026-04-29 14:49 37.90811 20.85776 6180 ft 277 kts 28°
2026-04-29 14:49 37.92489 20.86979 6968 ft 278 kts 28°
2026-04-29 14:50 37.94192 20.88165 7733 ft 280 kts 27°
2026-04-29 14:50 37.95920 20.89345 8522 ft 283 kts 26°
2026-04-29 14:50 37.97745 20.90265 9291 ft 284 kts
2026-04-29 14:50 37.99712 20.90507 10069 ft 286 kts
2026-04-29 14:51 38.01762 20.90593 10451 ft 304 kts
2026-04-29 14:51 38.03946 20.90680 10736 ft 324 kts
2026-04-29 14:51 38.06253 20.90788 11173 ft 337 kts
2026-04-29 14:51 38.08611 20.90910 11852 ft 341 kts
2026-04-29 14:52 38.10995 20.91040 12571 ft 344 kts
2026-04-29 14:52 38.13397 20.91173 13286 ft 348 kts
2026-04-29 14:52 38.15831 20.91308 13986 ft 351 kts
2026-04-29 14:52 38.18281 20.91446 14601 ft 354 kts
2026-04-29 14:53 38.20752 20.91591 15239 ft 357 kts
2026-04-29 14:53 38.23246 20.91739 15848 ft 360 kts
2026-04-29 14:53 38.25763 20.91883 16468 ft 363 kts
2026-04-29 14:53 38.28296 20.92056 17080 ft 366 kts
2026-04-29 14:54 38.30856 20.92241 17680 ft 370 kts
2026-04-29 14:54 38.33434 20.92422 18276 ft 373 kts
2026-04-29 14:54 38.36029 20.92603 18796 ft 375 kts
2026-04-29 14:54 38.38645 20.92783 19312 ft 378 kts
2026-04-29 14:55 38.41278 20.92958 19827 ft 380 kts
2026-04-29 14:55 38.43926 20.93140 20339 ft 382 kts
2026-04-29 14:55 38.46591 20.93326 20847 ft 384 kts
2026-04-29 14:55 38.49265 20.93506 21344 ft 387 kts
2026-04-29 14:56 38.51964 20.93685 21844 ft 389 kts
2026-04-29 14:56 38.54672 20.93862 22349 ft 391 kts
2026-04-29 14:56 38.57399 20.94040 22844 ft 394 kts
2026-04-29 14:56 38.60152 20.94217 23320 ft 397 kts
2026-04-29 14:57 38.62915 20.94400 23768 ft 399 kts
2026-04-29 14:57 38.65698 20.94594 24158 ft 402 kts
2026-04-29 14:57 38.68500 20.94796 24553 ft 404 kts
2026-04-29 14:57 38.71319 20.94996 24947 ft 407 kts
2026-04-29 14:58 38.74155 20.95195 25333 ft 409 kts
2026-04-29 14:58 38.77002 20.95388 25726 ft 411 kts
2026-04-29 14:58 38.79872 20.95579 26086 ft 414 kts
2026-04-29 14:58 38.82752 20.95773 26455 ft 416 kts
2026-04-29 14:59 38.85653 20.95972 26817 ft 418 kts
2026-04-29 14:59 38.88568 20.96166 27172 ft 420 kts
2026-04-29 14:59 38.91493 20.96360 27510 ft 422 kts
2026-04-29 14:59 38.94435 20.96553 27846 ft 425 kts
2026-04-29 15:00 38.97394 20.96732 28160 ft 426 kts 358°
2026-04-29 15:00 39.00338 20.96496 28456 ft 425 kts 350°
2026-04-29 15:00 39.03270 20.95922 28783 ft 426 kts 348°
2026-04-29 15:00 39.06201 20.95284 29083 ft 428 kts 348°
2026-04-29 15:01 39.09140 20.94645 29382 ft 430 kts 348°
2026-04-29 15:01 39.12100 20.94016 29670 ft 432 kts 348°
2026-04-29 15:01 39.15079 20.93401 29964 ft 434 kts 348°
2026-04-29 15:01 39.18069 20.92796 30235 ft 436 kts 348°
2026-04-29 15:02 39.21040 20.92202 30466 ft 438 kts 348°
2026-04-29 15:02 39.24091 20.91574 30691 ft 440 kts 348°
2026-04-29 15:02 39.27116 20.90930 30961 ft 440 kts 348°
2026-04-29 15:02 39.30125 20.90306 31289 ft 439 kts 348°
2026-04-29 15:03 39.33108 20.89682 31614 ft 438 kts 348°
2026-04-29 15:03 39.36115 20.89062 31927 ft 437 kts 348°
2026-04-29 15:03 39.39113 20.88448 32250 ft 436 kts 348°
2026-04-29 15:03 39.42114 20.87831 32553 ft 436 kts 348°
2026-04-29 15:04 39.45107 20.87218 32867 ft 435 kts 348°
2026-04-29 15:04 39.48092 20.86613 33161 ft 434 kts 348°
2026-04-29 15:04 39.51076 20.86022 33421 ft 434 kts 348°
2026-04-29 15:04 39.54061 20.85423 33668 ft 433 kts 348°
2026-04-29 15:05 39.57070 20.84807 33935 ft 432 kts 348°
2026-04-29 15:05 39.59974 20.84207 34102 ft 433 kts 348°
2026-04-29 15:05 39.62974 20.83584 34117 ft 432 kts 348°
2026-04-29 15:06 39.68895 20.82298 34098 ft 429 kts 344°
2026-04-29 15:06 39.74415 20.79526 34082 ft 426 kts 332°
2026-04-29 15:07 39.79769 20.76223 34084 ft 426 kts 332°
2026-04-29 15:07 39.84703 20.73213 34077 ft 426 kts 333°
2026-04-29 15:08 39.90079 20.69949 34079 ft 425 kts 332°
2026-04-29 15:08 39.95399 20.66707 34064 ft 425 kts 332°
2026-04-29 15:09 40.00761 20.63437 34050 ft 425 kts 332°
2026-04-29 15:09 40.06119 20.60167 34057 ft 426 kts 332°
2026-04-29 15:10 40.11501 20.56811 34046 ft 426 kts 332°
2026-04-29 15:10 40.16820 20.53443 34058 ft 424 kts 332°
2026-04-29 15:11 40.22098 20.50108 34055 ft 424 kts 332°
2026-04-29 15:11 40.27442 20.46725 34048 ft 424 kts 332°
2026-04-29 15:12 40.32749 20.43354 34046 ft 424 kts 331°
2026-04-29 15:12 40.38052 20.39994 34059 ft 423 kts 331°
2026-04-29 15:13 40.43343 20.36632 34055 ft 423 kts 331°
2026-04-29 15:13 40.48637 20.33260 34055 ft 423 kts 331°
2026-04-29 15:14 40.53934 20.29876 34055 ft 425 kts 332°
2026-04-29 15:14 40.59235 20.26487 34060 ft 423 kts 331°
2026-04-29 15:15 40.64496 20.23119 34046 ft 420 kts 331°
2026-04-29 15:15 40.69742 20.19747 34059 ft 420 kts 331°
2026-04-29 15:16 40.74987 20.16369 34059 ft 418 kts 331°
2026-04-29 15:16 40.80229 20.12991 34052 ft 420 kts 331°
2026-04-29 15:17 40.85485 20.09600 34070 ft 420 kts 331°
2026-04-29 15:17 40.90735 20.06211 34066 ft 420 kts 331°
2026-04-29 15:18 40.95980 20.02813 34055 ft 420 kts 331°
2026-04-29 15:18 41.01226 19.99413 34066 ft 420 kts 331°
2026-04-29 15:19 41.06472 19.96005 34074 ft 420 kts 331°
2026-04-29 15:19 41.11714 19.92588 34068 ft 420 kts 331°
2026-04-29 15:20 41.16070 19.89748 34079 ft 420 kts 331°
2026-04-29 15:20 41.21308 19.86326 34079 ft 420 kts 331°
2026-04-29 15:21 41.26549 19.82901 34077 ft 420 kts 331°
2026-04-29 15:21 41.31791 19.79463 34084 ft 419 kts 330°
2026-04-29 15:22 41.37025 19.76023 34092 ft 420 kts 330°
2026-04-29 15:22 41.42265 19.72581 34077 ft 420 kts 330°
2026-04-29 15:23 41.47503 19.69130 34084 ft 420 kts 330°
2026-04-29 15:23 41.52738 19.65671 34074 ft 419 kts 330°
2026-04-29 15:24 41.57961 19.62220 34065 ft 419 kts 330°
2026-04-29 15:24 41.63182 19.58760 34064 ft 419 kts 330°
2026-04-29 15:25 41.68394 19.55296 34063 ft 419 kts 330°
2026-04-29 15:25 41.73607 19.51820 34058 ft 419 kts 330°
2026-04-29 15:26 41.78807 19.48340 34054 ft 417 kts 330°
2026-04-29 15:26 41.84000 19.44872 34051 ft 417 kts 330°
2026-04-29 15:27 41.89203 19.41411 34053 ft 418 kts 330°
2026-04-29 15:27 41.94403 19.37919 34042 ft 418 kts 330°
2026-04-29 15:28 41.99593 19.34432 34049 ft 416 kts 329°
2026-04-29 15:28 42.04771 19.30947 34034 ft 416 kts 329°
2026-04-29 15:29 42.09957 19.27458 34035 ft 416 kts 329°
2026-04-29 15:30 42.20316 19.20454 34046 ft 416 kts 329°
2026-04-29 15:30 42.25468 19.16969 34029 ft 414 kts 329°
2026-04-29 15:31 42.30617 19.13474 34031 ft 414 kts 329°
2026-04-29 15:31 42.35769 19.09970 34025 ft 415 kts 329°
2026-04-29 15:32 42.40928 19.06456 34027 ft 415 kts 329°
2026-04-29 15:32 42.46075 19.02944 34029 ft 414 kts 329°
2026-04-29 15:33 42.51222 18.99427 34033 ft 414 kts 329°
2026-04-29 15:33 42.56362 18.95908 34040 ft 414 kts 329°
2026-04-29 15:34 42.61466 18.92407 34042 ft 414 kts 329°
2026-04-29 15:34 42.66628 18.88854 34053 ft 413 kts 328°
2026-04-29 15:35 42.71759 18.85322 34044 ft 413 kts 328°
2026-04-29 15:35 42.76886 18.81791 34047 ft 412 kts 328°